| time (UTC) | temp C | wind direction | speed KPH | gust KPH | rain 1hr cm | rain 24hr cm | rain mn cm | humidity % | barometer mb |
| 20260902192234 | 26 | 331 | 3.2 | 11.3 | 0.00 | 0.00 | 0.00 | 45 | 1017.0 |
| 20260902191736 | 26 | 312 | 8.0 | 11.3 | 0.00 | 0.00 | 0.00 | 44 | 1016.7 |
| 20260902190733 | 26 | 327 | 3.2 | 9.7 | 0.00 | 0.00 | 0.00 | 45 | 1016.7 |
| 20260902190236 | 26 | 313 | 8.0 | 9.7 | 0.00 | 0.00 | 0.00 | 44 | 1016.8 |
| 20260902185234 | 26 | 312 | 3.2 | 6.4 | 0.00 | 0.00 | 0.00 | 47 | 1016.5 |
| 20260902184218 | 27 | 317 | 4.8 | 9.7 | 0.00 | 0.00 | 0.00 | 49 | 1016.4 |
| 20260902183215 | 27 | 326 | 6.4 | 9.7 | 0.00 | 0.00 | 0.00 | 53 | 1016.3 |
| 20260902182711 | 27 | 311 | 1.6 | 11.3 | 0.00 | 0.00 | 0.00 | 54 | 1016.3 |
| 20260902182213 | 27 | 313 | 3.2 | 11.3 | 0.00 | 0.00 | 0.00 | 54 | 1016.2 |
| 20260902181701 | 27 | 322 | 0.0 | 9.7 | 0.00 | 0.00 | 0.00 | 53 | 1016.3 |
| 20260902181155 | 27 | 320 | 1.6 | 9.7 | 0.00 | 0.00 | 0.00 | 52 | 1016.1 |
| 20260902180658 | 27 | 317 | 1.6 | 6.4 | 0.00 | 0.00 | 0.00 | 51 | 1016.3 |
| 20260902180148 | 27 | 318 | 1.6 | 6.4 | 0.00 | 0.00 | 0.00 | 50 | 1016.0 |
| 20260902175642 | 28 | 300 | 0.0 | 6.4 | 0.00 | 0.00 | 0.00 | 49 | 1015.9 |
| 20260902175148 | 28 | 322 | 3.2 | 6.4 | 0.00 | 0.00 | 0.00 | 47 | 1016.0 |
| 20260902174643 | 28 | 318 | 4.8 | 6.4 | 0.00 | 0.00 | 0.00 | 47 | 1015.9 |
| 20260902174142 | 28 | 323 | 1.6 | 11.3 | 0.00 | 0.00 | 0.00 | 48 | 1015.8 |
| 20260902173646 | 28 | 308 | 0.0 | 11.3 | 0.00 | 0.00 | 0.00 | 49 | 1015.9 |
| 20260902173150 | 28 | 312 | 1.6 | 4.8 | 0.00 | 0.00 | 0.00 | 50 | 1015.7 |
| 20260902172646 | 28 | 315 | 4.8 | 4.8 | 0.00 | 0.00 | 0.00 | 50 | 1015.7 |
| 20260902172148 | 28 | 313 | 1.6 | 4.8 | 0.00 | 0.00 | 0.00 | 51 | 1015.5 |
| 20260902171145 | 28 | 309 | 6.4 | 9.7 | 0.00 | 0.00 | 0.00 | 50 | 1015.7 |
| 20260902170645 | 29 | 314 | 1.6 | 11.3 | 0.00 | 0.00 | 0.00 | 49 | 1015.5 |
| 20260902170142 | 29 | 330 | 3.2 | 11.3 | 0.00 | 0.00 | 0.00 | 48 | 1015.6 |
| 20260902165643 | 29 | 306 | 3.2 | 11.3 | 0.00 | 0.00 | 0.00 | 48 | 1015.6 |
| 20260902164645 | 29 | 320 | 1.6 | 9.7 | 0.00 | 0.00 | 0.00 | 46 | 1015.4 |
| 20260902164142 | 30 | 344 | 0.0 | 12.9 | 0.00 | 0.00 | 0.00 | 45 | 1015.4 |
| 20260902163645 | 30 | 314 | 4.8 | 12.9 | 0.00 | 0.00 | 0.00 | 44 | 1015.5 |
| 20260902163146 | 30 | 257 | 3.2 | 9.7 | 0.00 | 0.00 | 0.00 | 43 | 1015.8 |
| 20260902162643 | 30 | 26 | 0.0 | 11.3 | 0.00 | 0.00 | 0.00 | 43 | 1015.5 |
| 20260902162144 | 30 | 310 | 4.8 | 11.3 | 0.00 | 0.00 | 0.00 | 41 | 1015.5 |
| 20260902161645 | 30 | 317 | 1.6 | 11.3 | 0.00 | 0.00 | 0.00 | 42 | 1015.6 |
| 20260902161146 | 30 | 320 | 3.2 | 11.3 | 0.00 | 0.00 | 0.00 | 41 | 1015.5 |
| 20260902160651 | 30 | 3 | 1.6 | 9.7 | 0.00 | 0.00 | 0.00 | 41 | 1015.6 |
| 20260902160145 | 31 | 251 | 0.0 | 16.1 | 0.00 | 0.00 | 0.00 | 42 | 1015.7 |
| 20260902154638 | 31 | 314 | 6.4 | 17.7 | 0.00 | 0.00 | 0.00 | 41 | 1015.7 |
| 20260902154138 | 31 | 316 | 6.4 | 17.7 | 0.00 | 0.00 | 0.00 | 41 | 1015.6 |
| 20260902153631 | 31 | 330 | 0.0 | 11.3 | 0.00 | 0.00 | 0.00 | 41 | 1015.5 |
| 20260902153130 | 31 | 313 | 3.2 | 11.3 | 0.00 | 0.00 | 0.00 | 40 | 1015.7 |
| 20260902152137 | 31 | 330 | 3.2 | 11.3 | 0.00 | 0.00 | 0.00 | 39 | 1015.5 |
| 20260902151631 | 31 | 315 | 1.6 | 9.7 | 0.00 | 0.00 | 0.00 | 39 | 1015.4 |
| 20260902151133 | 31 | 319 | 0.0 | 11.3 | 0.00 | 0.00 | 0.00 | 39 | 1015.6 |
| 20260902150633 | 31 | 326 | 4.8 | 11.3 | 0.00 | 0.00 | 0.00 | 38 | 1015.8 |
| 20260902150134 | 31 | 269 | 3.2 | 11.3 | 0.00 | 0.00 | 0.00 | 37 | 1015.6 |
| 20260902145633 | 32 | 324 | 6.4 | 6.4 | 0.00 | 0.00 | 0.00 | 36 | 1015.5 |
| 20260902145130 | 32 | 305 | 0.0 | 4.8 | 0.00 | 0.00 | 0.00 | 36 | 1015.3 |
| 20260902144631 | 32 | 6 | 0.0 | 1.6 | 0.00 | 0.00 | 0.00 | 36 | 1015.3 |
| 20260902144134 | 32 | 117 | 0.0 | 3.2 | 0.00 | 0.00 | 0.00 | 36 | 1015.4 |
| 20260902143632 | 32 | 108 | 0.0 | 3.2 | 0.00 | 0.00 | 0.00 | 37 | 1015.4 |
| 20260902143131 | 32 | 129 | 0.0 | 3.2 | 0.00 | 0.00 | 0.00 | 36 | 1015.3 |
| 20260902142633 | 32 | 330 | 0.0 | 3.2 | 0.00 | 0.00 | 0.00 | 37 | 1015.2 |
| 20260902142130 | 32 | 31 | 1.6 | 12.9 | 0.00 | 0.00 | 0.00 | 38 | 1015.4 |
| 20260902141634 | 32 | 86 | 1.6 | 12.9 | 0.00 | 0.00 | 0.00 | 38 | 1015.3 |
| 20260902141133 | 32 | 7 | 1.6 | 11.3 | 0.00 | 0.00 | 0.00 | 39 | 1015.5 |
| 20260902140630 | 32 | 22 | 0.0 | 1.6 | 0.00 | 0.00 | 0.00 | 38 | 1015.4 |
| 20260902140131 | 32 | 8 | 0.0 | 0.0 | 0.00 | 0.00 | 0.00 | 36 | 1015.8 |
| 20260902135133 | 32 | 354 | 0.0 | 3.2 | 0.00 | 0.00 | 0.00 | 36 | 1015.5 |
| 20260902134634 | 33 | 310 | 3.2 | 3.2 | 0.00 | 0.00 | 0.00 | 36 | 1015.4 |
| 20260902134136 | 33 | 327 | 0.0 | 3.2 | 0.00 | 0.00 | 0.00 | 35 | 1015.4 |
| 20260902133133 | 33 | 331 | 0.0 | 6.4 | 0.00 | 0.00 | 0.00 | 35 | 1015.5 |
| 20260902132635 | 34 | 310 | 1.6 | 3.2 | 0.00 | 0.00 | 0.00 | 34 | 1015.3 |
| 20260902132132 | 34 | 316 | 0.0 | 3.2 | 0.00 | 0.00 | 0.00 | 34 | 1015.7 |
| 20260902131632 | 35 | 300 | 1.6 | 1.6 | 0.00 | 0.00 | 0.00 | 32 | 1015.9 |
| 20260902131132 | 34 | 174 | 0.0 | 1.6 | 0.00 | 0.00 | 0.00 | 33 | 1015.7 |
| 20260902130633 | 34 | 140 | 0.0 | 3.2 | 0.00 | 0.00 | 0.00 | 33 | 1015.8 |
| 20260902130131 | 34 | 140 | 0.0 | 3.2 | 0.00 | 0.00 | 0.00 | 32 | 1016.0 |
| 20260902125633 | 34 | 145 | 0.0 | 3.2 | 0.00 | 0.00 | 0.00 | 33 | 1016.2 |
| 20260902125135 | 34 | 145 | 0.0 | 3.2 | 0.00 | 0.00 | 0.00 | 32 | 1016.2 |
| 20260902124631 | 34 | 124 | 0.0 | 3.2 | 0.00 | 0.00 | 0.00 | 34 | 1016.2 |
| 20260902124134 | 34 | 170 | 0.0 | 3.2 | 0.00 | 0.00 | 0.00 | 33 | 1016.5 |
| 20260902123633 | 34 | 182 | 0.0 | 3.2 | 0.00 | 0.00 | 0.00 | 33 | 1016.5 |
| 20260902123139 | 34 | 85 | 0.0 | 1.6 | 0.00 | 0.00 | 0.00 | 35 | 1016.5 |
| 20260902122636 | 33 | 227 | 0.0 | 1.6 | 0.00 | 0.00 | 0.00 | 35 | 1016.6 |
| 20260902122134 | 34 | 220 | 0.0 | 1.6 | 0.00 | 0.00 | 0.00 | 33 | 1016.4 |
| 20260902121637 | 33 | 213 | 0.0 | 1.6 | 0.00 | 0.00 | 0.00 | 34 | 1016.5 |
| 20260902121142 | 33 | 112 | 0.0 | 1.6 | 0.00 | 0.00 | 0.00 | 37 | 1016.6 |
| 20260902120635 | 33 | 300 | 0.0 | 6.4 | 0.00 | 0.00 | 0.00 | 36 | 1016.6 |
| 20260902120134 | 33 | 301 | 0.0 | 6.4 | 0.00 | 0.00 | 0.00 | 40 | 1016.8 |
| 20260902115636 | 33 | 185 | 0.0 | 1.6 | 0.00 | 0.00 | 0.00 | 36 | 1016.9 |
| 20260902115137 | 33 | 142 | 0.0 | 1.6 | 0.00 | 0.00 | 0.00 | 36 | 1016.8 |
| 20260902114631 | 33 | 138 | 0.0 | 1.6 | 0.00 | 0.00 | 0.00 | 36 | 1016.7 |
| 20260902114133 | 33 | 135 | 0.0 | 3.2 | 0.00 | 0.00 | 0.00 | 38 | 1016.7 |
| 20260902113630 | 33 | 132 | 0.0 | 3.2 | 0.00 | 0.00 | 0.00 | 37 | 1016.9 |
| 20260902113132 | 33 | 199 | 0.0 | 1.6 | 0.00 | 0.00 | 0.00 | 40 | 1016.9 |
| 20260902112130 | 32 | 161 | 0.0 | 9.7 | 0.00 | 0.00 | 0.00 | 38 | 1017.0 |
| 20260902111631 | 32 | 226 | 0.0 | 9.7 | 0.00 | 0.00 | 0.00 | 39 | 1017.2 |
| 20260902111133 | 32 | 218 | 0.0 | 1.6 | 0.00 | 0.00 | 0.00 | 38 | 1017.3 |
| 20260902110631 | 32 | 272 | 0.0 | 0.0 | 0.00 | 0.00 | 0.00 | 38 | 1017.5 |
| 20260902110131 | 32 | 273 | 0.0 | 0.0 | 0.00 | 0.00 | 0.00 | 40 | 1017.5 |
| 20260902105633 | 32 | 281 | 0.0 | 9.7 | 0.00 | 0.00 | 0.00 | 39 | 1017.6 |
| 20260902105131 | 31 | 316 | 0.0 | 9.7 | 0.00 | 0.00 | 0.00 | 41 | 1017.7 |
| 20260902104636 | 32 | 297 | 3.2 | 3.2 | 0.00 | 0.00 | 0.00 | 38 | 1017.6 |
| 20260902104133 | 32 | 146 | 0.0 | 3.2 | 0.00 | 0.00 | 0.00 | 40 | 1017.8 |
| 20260902103631 | 31 | 132 | 0.0 | 3.2 | 0.00 | 0.00 | 0.00 | 40 | 1017.7 |
| 20260902103131 | 31 | 131 | 0.0 | 3.2 | 0.00 | 0.00 | 0.00 | 38 | 1018.0 |
| 20260902102639 | 31 | 166 | 0.0 | 3.2 | 0.00 | 0.00 | 0.00 | 39 | 1017.9 |
| 20260902102134 | 31 | 146 | 0.0 | 3.2 | 0.00 | 0.00 | 0.00 | 39 | 1018.0 |
| 20260902101633 | 31 | 269 | 0.0 | 3.2 | 0.00 | 0.00 | 0.00 | 38 | 1018.0 |
| 20260902101134 | 31 | 147 | 0.0 | 1.6 | 0.00 | 0.00 | 0.00 | 38 | 1018.2 |
| 20260902100639 | 31 | 147 | 0.0 | 1.6 | 0.00 | 0.00 | 0.00 | 37 | 1018.1 |
| 20260902100135 | 31 | 152 | 0.0 | 1.6 | 0.00 | 0.00 | 0.00 | 37 | 1018.1 |
| 20260902095131 | 30 | 151 | 0.0 | 1.6 | 0.00 | 0.00 | 0.00 | 39 | 1018.3 |
| 20260902094633 | 30 | 170 | 0.0 | 1.6 | 0.00 | 0.00 | 0.00 | 39 | 1018.2 |
| 20260902094133 | 30 | 276 | 0.0 | 1.6 | 0.00 | 0.00 | 0.00 | 38 | 1018.3 |
| 20260902093130 | 29 | 145 | 0.0 | 1.6 | 0.00 | 0.00 | 0.00 | 43 | 1018.2 |
| 20260902092633 | 30 | 243 | 1.6 | 1.6 | 0.00 | 0.00 | 0.00 | 39 | 1018.4 |
| 20260902092132 | 29 | 295 | 0.0 | 1.6 | 0.00 | 0.00 | 0.00 | 39 | 1018.4 |
| 20260902091630 | 27 | 296 | 0.0 | 3.2 | 0.00 | 0.00 | 0.00 | 44 | 1018.6 |
| 20260902091136 | 28 | 310 | 0.0 | 3.2 | 0.00 | 0.00 | 0.00 | 44 | 1018.6 |
| 20260902090633 | 27 | 47 | 0.0 | 1.6 | 0.00 | 0.00 | 0.00 | 49 | 1018.6 |
| 20260902090135 | 27 | 44 | 0.0 | 1.6 | 0.00 | 0.00 | 0.00 | 47 | 1018.6 |
| 20260902085633 | 27 | 334 | 0.0 | 1.6 | 0.00 | 0.00 | 0.00 | 51 | 1018.4 |
| 20260902085132 | 27 | 327 | 1.6 | 1.6 | 0.00 | 0.00 | 0.00 | 50 | 1018.4 |
| 20260902084139 | 25 | 331 | 0.0 | 3.2 | 0.00 | 0.00 | 0.00 | 54 | 1018.7 |
| 20260902083632 | 25 | 323 | 0.0 | 3.2 | 0.00 | 0.00 | 0.00 | 55 | 1018.6 |
| 20260902083133 | 25 | 313 | 0.0 | 1.6 | 0.00 | 0.00 | 0.00 | 55 | 1018.5 |
| 20260902082637 | 25 | 313 | 0.0 | 3.2 | 0.00 | 0.00 | 0.00 | 57 | 1018.5 |
| 20260902082137 | 25 | 313 | 0.0 | 3.2 | 0.00 | 0.00 | 0.00 | 57 | 1018.6 |
| 20260902081133 | 24 | 311 | 0.0 | 0.0 | 0.00 | 0.00 | 0.00 | 60 | 1018.3 |
| 20260902080131 | 23 | 310 | 0.0 | 0.0 | 0.00 | 0.00 | 0.00 | 62 | 1018.3 |
| 20260902075632 | 23 | 310 | 0.0 | 0.0 | 0.00 | 0.00 | 0.00 | 62 | 1018.6 |
| 20260902075223 | 23 | 310 | 0.0 | 0.0 | 0.00 | 0.00 | 0.00 | 64 | 1018.2 |
| 20260902074621 | 23 | 310 | 0.0 | 0.0 | 0.00 | 0.00 | 0.00 | 63 | 1018.3 |
| 20260902073555 | 22 | 310 | 0.0 | 0.0 | 0.00 | 0.00 | 0.00 | 66 | 1018.2 |
| 20260902073055 | 22 | 310 | 0.0 | 0.0 | 0.00 | 0.00 | 0.00 | 65 | 1018.4 |
| 20260902072548 | 22 | 310 | 0.0 | 0.0 | 0.00 | 0.00 | 0.00 | 67 | 1018.1 |
| 20260902072046 | 21 | 310 | 0.0 | 0.0 | 0.00 | 0.00 | 0.00 | 67 | 1018.2 |
| 20260902071549 | 21 | 310 | 0.0 | 0.0 | 0.00 | 0.00 | 0.00 | 67 | 1018.3 |
| 20260902071047 | 20 | 310 | 0.0 | 0.0 | 0.00 | 0.00 | 0.00 | 72 | 1018.3 |
| 20260902070545 | 19 | 311 | 0.0 | 0.0 | 0.00 | 0.00 | 0.00 | 72 | 1018.4 |
| 20260902070051 | 20 | 311 | 0.0 | 0.0 | 0.00 | 0.00 | 0.00 | 72 | 1018.2 |
| 20260902065542 | 19 | 311 | 0.0 | 0.0 | 0.00 | 0.00 | 0.00 | 72 | 1018.4 |
| 20260902064545 | 19 | 311 | 0.0 | 0.0 | 0.00 | 0.00 | 0.00 | 72 | 1018.4 |
| 20260902064049 | 18 | 311 | 0.0 | 0.0 | 0.00 | 0.00 | 0.00 | 73 | 1018.2 |
| 20260902063543 | 18 | 311 | 0.0 | 0.0 | 0.00 | 0.00 | 0.00 | 73 | 1018.1 |
| 20260902063046 | 18 | 310 | 0.0 | 0.0 | 0.00 | 0.00 | 0.00 | 75 | 1018.3 |
| 20260902062544 | 18 | 310 | 0.0 | 0.0 | 0.00 | 0.00 | 0.00 | 73 | 1018.2 |
| 20260902062044 | 17 | 310 | 0.0 | 0.0 | 0.00 | 0.00 | 0.00 | 75 | 1018.4 |
| 20260902061545 | 17 | 310 | 0.0 | 0.0 | 0.00 | 0.00 | 0.00 | 74 | 1018.4 |
| 20260902060542 | 16 | 311 | 0.0 | 1.6 | 0.00 | 0.00 | 0.00 | 79 | 1018.2 |
| 20260902060046 | 16 | 310 | 0.0 | 0.0 | 0.00 | 0.00 | 0.00 | 78 | 1018.4 |
| 20260902055543 | 16 | 311 | 0.0 | 0.0 | 0.00 | 0.00 | 0.00 | 79 | 1018.5 |
| 20260902055038 | 15 | 311 | 0.0 | 0.0 | 0.00 | 0.00 | 0.00 | 82 | 1018.3 |
| 20260902054533 | 15 | 311 | 0.0 | 0.0 | 0.00 | 0.00 | 0.00 | 84 | 1018.2 |
| 20260902054034 | 14 | 311 | 0.0 | 0.0 | 0.00 | 0.00 | 0.00 | 85 | 1018.2 |
| 20260902053032 | 13 | 311 | 0.0 | 0.0 | 0.00 | 0.00 | 0.00 | 86 | 1018.3 |
| 20260902052530 | 13 | 311 | 0.0 | 0.0 | 0.00 | 0.00 | 0.00 | 86 | 1018.1 |
| 20260902051530 | 13 | 311 | 0.0 | 0.0 | 0.00 | 0.00 | 0.00 | 85 | 1018.3 |
| 20260902051021 | 13 | 311 | 0.0 | 0.0 | 0.00 | 0.00 | 0.00 | 86 | 1018.1 |
| 20260902050522 | 13 | 311 | 0.0 | 0.0 | 0.00 | 0.00 | 0.00 | 87 | 1018.1 |
| 20260902050019 | 13 | 311 | 0.0 | 0.0 | 0.00 | 0.00 | 0.00 | 87 | 1018.2 |
| 20260902045522 | 13 | 311 | 0.0 | 0.0 | 0.00 | 0.00 | 0.00 | 87 | 1018.1 |
| 20260902045018 | 13 | 311 | 0.0 | 1.6 | 0.00 | 0.00 | 0.00 | 87 | 1018.2 |
| 20260902044519 | 13 | 311 | 0.0 | 1.6 | 0.00 | 0.00 | 0.00 | 87 | 1018.1 |
| 20260902043457 | 13 | 311 | 0.0 | 3.2 | 0.00 | 0.00 | 0.00 | 86 | 1018.2 |
| 20260902042456 | 13 | 311 | 1.6 | 3.2 | 0.00 | 0.00 | 0.00 | 87 | 1017.9 |
| 20260902041957 | 13 | 311 | 0.0 | 0.0 | 0.00 | 0.00 | 0.00 | 88 | 1018.0 |
| 20260902041444 | 13 | 311 | 0.0 | 0.0 | 0.00 | 0.00 | 0.00 | 87 | 1017.9 |
| 20260902040944 | 13 | 311 | 0.0 | 0.0 | 0.00 | 0.00 | 0.00 | 88 | 1017.7 |
| 20260902035943 | 13 | 311 | 0.0 | 0.0 | 0.00 | 0.00 | 0.00 | 87 | 1017.8 |
| 20260902035444 | 13 | 311 | 0.0 | 0.0 | 0.00 | 0.00 | 0.00 | 87 | 1017.9 |
| 20260902034942 | 13 | 311 | 0.0 | 0.0 | 0.00 | 0.00 | 0.00 | 86 | 1017.9 |
| 20260902034442 | 13 | 311 | 0.0 | 0.0 | 0.00 | 0.00 | 0.00 | 86 | 1017.9 |
| 20260902033931 | 13 | 311 | 0.0 | 0.0 | 0.00 | 0.00 | 0.00 | 86 | 1017.9 |
| 20260902033434 | 13 | 311 | 0.0 | 0.0 | 0.00 | 0.00 | 0.00 | 86 | 1017.8 |
| 20260902032431 | 13 | 311 | 0.0 | 0.0 | 0.00 | 0.00 | 0.00 | 86 | 1017.8 |
| 20260902031931 | 13 | 311 | 0.0 | 0.0 | 0.00 | 0.00 | 0.00 | 86 | 1017.8 |
| 20260902031432 | 13 | 311 | 0.0 | 0.0 | 0.00 | 0.00 | 0.00 | 85 | 1017.7 |
| 20260902030919 | 13 | 311 | 0.0 | 0.0 | 0.00 | 0.00 | 0.00 | 85 | 1017.7 |
| 20260902030422 | 13 | 311 | 0.0 | 1.6 | 0.00 | 0.00 | 0.00 | 84 | 1017.9 |
| 20260902025419 | 14 | 311 | 0.0 | 1.6 | 0.00 | 0.00 | 0.00 | 83 | 1017.9 |
| 20260902024920 | 14 | 311 | 0.0 | 3.2 | 0.00 | 0.00 | 0.00 | 83 | 1017.8 |
| 20260902024418 | 14 | 311 | 0.0 | 4.8 | 0.00 | 0.00 | 0.00 | 82 | 1017.6 |
| 20260902023424 | 13 | 329 | 0.0 | 1.6 | 0.00 | 0.00 | 0.00 | 85 | 1017.8 |
| 20260902021924 | 14 | 329 | 0.0 | 0.0 | 0.00 | 0.00 | 0.00 | 84 | 1017.8 |
| 20260902021409 | 14 | 329 | 0.0 | 0.0 | 0.00 | 0.00 | 0.00 | 84 | 1017.8 |
| 20260902020909 | 14 | 329 | 0.0 | 0.0 | 0.00 | 0.00 | 0.00 | 83 | 1017.7 |
| 20260902020407 | 14 | 329 | 0.0 | 0.0 | 0.00 | 0.00 | 0.00 | 82 | 1017.6 |
| 20260902015845 | 14 | 329 | 0.0 | 0.0 | 0.00 | 0.00 | 0.00 | 82 | 1017.8 |
| 20260902015346 | 14 | 329 | 0.0 | 0.0 | 0.00 | 0.00 | 0.00 | 82 | 1017.6 |
| 20260902014838 | 14 | 329 | 0.0 | 0.0 | 0.00 | 0.00 | 0.00 | 82 | 1017.6 |
| 20260902014331 | 14 | 329 | 0.0 | 0.0 | 0.00 | 0.00 | 0.00 | 81 | 1017.7 |
| 20260902013835 | 14 | 329 | 0.0 | 0.0 | 0.00 | 0.00 | 0.00 | 82 | 1017.5 |
| 20260902013335 | 14 | 329 | 0.0 | 0.0 | 0.00 | 0.00 | 0.00 | 82 | 1017.6 |
| 20260902012837 | 14 | 329 | 0.0 | 0.0 | 0.00 | 0.00 | 0.00 | 81 | 1017.7 |
| 20260902011334 | 15 | 329 | 0.0 | 1.6 | 0.00 | 0.00 | 0.00 | 79 | 1017.8 |
| 20260902010837 | 15 | 329 | 0.0 | 3.2 | 0.00 | 0.00 | 0.00 | 79 | 1018.0 |
| 20260902010331 | 15 | 329 | 0.0 | 3.2 | 0.00 | 0.00 | 0.00 | 80 | 1017.8 |
| 20260902004823 | 15 | 330 | 0.0 | 0.0 | 0.00 | 0.00 | 0.00 | 80 | 1017.7 |
| 20260902004320 | 15 | 330 | 0.0 | 0.0 | 0.00 | 0.00 | 0.00 | 80 | 1017.6 |
| 20260902002320 | 15 | 329 | 0.0 | 0.0 | 0.00 | 0.00 | 0.00 | 77 | 1017.7 |
| 20260902001821 | 16 | 329 | 0.0 | 0.0 | 0.00 | 0.00 | 0.00 | 77 | 1017.8 |
| 20260902001307 | 16 | 329 | 0.0 | 0.0 | 0.00 | 0.00 | 0.00 | 76 | 1017.9 |
| 20260902000807 | 16 | 329 | 0.0 | 0.0 | 0.00 | 0.00 | 0.00 | 76 | 1017.9 |
| 20260902000258 | 16 | 329 | 0.0 | 0.0 | 0.00 | 0.00 | 0.00 | 75 | 1017.9 |
| 20260901235755 | 16 | 329 | 0.0 | 0.0 | 0.00 | 0.00 | 0.00 | 75 | 1017.8 |
| 20260901235256 | 16 | 329 | 0.0 | 0.0 | 0.00 | 0.00 | 0.00 | 75 | 1017.9 |
| 20260901234247 | 16 | 329 | 0.0 | 3.2 | 0.00 | 0.00 | 0.00 | 74 | 1018.1 |
| 20260901233748 | 16 | 335 | 0.0 | 1.6 | 0.00 | 0.00 | 0.00 | 74 | 1018.1 |
| 20260901233245 | 16 | 329 | 1.6 | 1.6 | 0.00 | 0.00 | 0.00 | 75 | 1018.0 |
| 20260901232246 | 17 | 334 | 0.0 | 0.0 | 0.00 | 0.00 | 0.00 | 75 | 1017.9 |
| 20260901231746 | 17 | 334 | 0.0 | 0.0 | 0.00 | 0.00 | 0.00 | 75 | 1017.9 |
| 20260901230742 | 17 | 334 | 0.0 | 0.0 | 0.00 | 0.00 | 0.00 | 73 | 1018.1 |
| 20260901230243 | 17 | 334 | 0.0 | 0.0 | 0.00 | 0.00 | 0.00 | 74 | 1018.1 |
| 20260901225247 | 17 | 333 | 0.0 | 1.6 | 0.00 | 0.00 | 0.00 | 73 | 1018.0 |
| 20260901224735 | 18 | 333 | 0.0 | 1.6 | 0.00 | 0.00 | 0.00 | 72 | 1018.0 |
| 20260901224234 | 17 | 333 | 1.6 | 1.6 | 0.00 | 0.00 | 0.00 | 72 | 1017.9 |
| 20260901223238 | 18 | 333 | 0.0 | 1.6 | 0.00 | 0.00 | 0.00 | 73 | 1018.0 |
| 20260901222730 | 18 | 333 | 0.0 | 1.6 | 0.00 | 0.00 | 0.00 | 73 | 1018.1 |
| 20260901222232 | 18 | 333 | 0.0 | 1.6 | 0.00 | 0.00 | 0.00 | 73 | 1018.0 |
| 20260901221736 | 18 | 338 | 0.0 | 0.0 | 0.00 | 0.00 | 0.00 | 73 | 1018.2 |
| 20260901220727 | 19 | 337 | 0.0 | 0.0 | 0.00 | 0.00 | 0.00 | 72 | 1018.0 |
| 20260901220200 | 19 | 337 | 0.0 | 0.0 | 0.00 | 0.00 | 0.00 | 72 | 1017.9 |
| 20260901215658 | 19 | 337 | 0.0 | 3.2 | 0.00 | 0.00 | 0.00 | 71 | 1018.0 |
| 20260901215148 | 19 | 336 | 0.0 | 3.2 | 0.00 | 0.00 | 0.00 | 71 | 1018.0 |
| 20260901214646 | 19 | 339 | 0.0 | 3.2 | 0.00 | 0.00 | 0.00 | 71 | 1018.0 |
| 20260901214145 | 20 | 339 | 0.0 | 3.2 | 0.00 | 0.00 | 0.00 | 72 | 1017.8 |
| 20260901213634 | 19 | 349 | 0.0 | 0.0 | 0.00 | 0.00 | 0.00 | 72 | 1017.8 |
| 20260901213130 | 20 | 349 | 0.0 | 0.0 | 0.00 | 0.00 | 0.00 | 71 | 1017.8 |
| 20260901212634 | 20 | 349 | 0.0 | 1.6 | 0.00 | 0.00 | 0.00 | 71 | 1017.9 |
| 20260901212131 | 20 | 349 | 0.0 | 1.6 | 0.00 | 0.00 | 0.00 | 70 | 1017.9 |
| 20260901211630 | 20 | 349 | 0.0 | 1.6 | 0.00 | 0.00 | 0.00 | 70 | 1017.9 |
| 20260901211133 | 20 | 349 | 0.0 | 0.0 | 0.00 | 0.00 | 0.00 | 69 | 1017.6 |
| 20260901210632 | 21 | 349 | 0.0 | 3.2 | 0.00 | 0.00 | 0.00 | 68 | 1017.7 |
| 20260901210135 | 21 | 348 | 0.0 | 3.2 | 0.00 | 0.00 | 0.00 | 69 | 1018.0 |
| 20260901205635 | 21 | 353 | 0.0 | 1.6 | 0.00 | 0.00 | 0.00 | 69 | 1017.9 |
| 20260901205134 | 21 | 353 | 0.0 | 1.6 | 0.00 | 0.00 | 0.00 | 69 | 1017.9 |
| 20260901204638 | 21 | 352 | 0.0 | 1.6 | 0.00 | 0.00 | 0.00 | 68 | 1017.8 |
| 20260901204136 | 21 | 354 | 0.0 | 0.0 | 0.00 | 0.00 | 0.00 | 67 | 1017.8 |
| 20260901203634 | 21 | 354 | 0.0 | 0.0 | 0.00 | 0.00 | 0.00 | 66 | 1017.8 |
| 20260901203133 | 22 | 354 | 0.0 | 1.6 | 0.00 | 0.00 | 0.00 | 66 | 1017.9 |
| 20260901202643 | 22 | 353 | 0.0 | 1.6 | 0.00 | 0.00 | 0.00 | 65 | 1017.5 |
| 20260901201633 | 22 | 336 | 0.0 | 3.2 | 0.00 | 0.00 | 0.00 | 63 | 1017.8 |
| 20260901200134 | 22 | 314 | 0.0 | 1.6 | 0.00 | 0.00 | 0.00 | 65 | 1017.7 |
| 20260901195638 | 22 | 318 | 0.0 | 1.6 | 0.00 | 0.00 | 0.00 | 65 | 1017.5 |
| 20260901195133 | 22 | 319 | 0.0 | 1.6 | 0.00 | 0.00 | 0.00 | 65 | 1017.5 |
| 20260901194634 | 23 | 317 | 0.0 | 1.6 | 0.00 | 0.00 | 0.00 | 64 | 1017.4 |
| 20260901194139 | 23 | 317 | 0.0 | 6.4 | 0.00 | 0.00 | 0.00 | 63 | 1017.2 |
| 20260901193630 | 23 | 316 | 0.0 | 6.4 | 0.00 | 0.00 | 0.00 | 64 | 1017.5 |
| 20260901192633 | 23 | 308 | 1.6 | 4.8 | 0.00 | 0.00 | 0.00 | 64 | 1016.8 |